Tracking 17152 objects as of 28-April-2015
HD Live streaming from Space Station

ARTEMIS

Track ARTEMIS now!
ARTEMIS is classified as:


NORAD ID: 26863
Int'l Code: 2001-029A
Perigee: 35,791.3 km
Apogee: 35,794.0 km
Inclination: 11.8 °
Period: 1,436.0 minutes
Semi major axis: 42163 km
RCS: 10 m2 (large)
Launch date: July 12, 2001
Source: European Space Agency (ESA)

An 18-month rescue mission recovered the satellite; develop European capabilities in satellite communications; test new technologies; support development of European navigation system (EGNOS, c. 2010).
Your satellite tracking list
Your tracking list is empty




NASA's NSSDC Master Catalog

Two Line Element Set (TLE):
1 26863U 01029A   15118.07305142  .00000105  00000-0  00000+0 0  9990
2 26863 011.7648 041.6269 0000312 022.9711 198.8380 01.00275650 51627

Source of the keplerian elements: AFSPC

N2YO: 410